Wind_Speed
10 11 11 12 13 14 15 15 16 16 16 16 15 13 12 11 9 8 7 6 5 3 2 2 4 7 10 12 15 16 16 17 17 16 14 13 13 13 12 11 11 11 11
9 9 9 10 11 12 13 14 15 15 16 16 15 14 13 12 10 9 8 7 6 4 3 1 1 3 6 8 11 13 15 16 16 16 16 16 15 14 13 13 13 13 12
7 7 8 8 9 10 12 13 14 14 15 15 15 14 13 12 11 10 9 8 7 6 4 2 1 1 4 6 8 10 13 15 16 16 16 16 16 15 15 16 16 15 13
6 6 6 6 7 8 10 11 11 12 13 13 13 13 13 12 11 10 9 8 7 7 5 4 3 1 2 4 6 8 10 11 12 13 14 14 15 16 16 16 16 15 14
4 4 4 4 5 6 7 8 9 10 11 11 12 12 12 12 11 10 10 9 9 8 7 6 4 3 1 3 4 6 7 8 10 11 12 13 14 15 15 15 15 15 14
3 3 2 3 3 4 5 6 6 7 8 9 9 10 10 10 10 10 9 9 9 8 8 7 6 4 3 3 4 5 6 7 7 8 9 11 12 12 12 12 12 13 12
3 2 2 2 1 2 2 3 4 5 6 6 7 7 8 8 8 8 8 9 8 8 8 8 7 6 4 3 4 4 5 6 6 7 8 8 9 9 9 9 9 9 10
3 3 3 3 2 1 0 1 2 3 4 5 5 6 6 7 7 7 7 7 8 8 8 8 7 7 6 5 4 4 5 5 6 6 7 6 6 7 7 7 7 7 7
4 4 4 4 4 3 3 2 2 3 4 4 5 6 6 7 7 7 6 6 6 7 7 7 7 6 6 5 5 4 4 4 5 5 5 5 6 6 5 5 5 6 6
4 5 6 6 6 6 5 5 5 5 5 6 6 6 7 7 7 7 7 7 6 6 6 6 6 6 6 5 5 5 4 4 4 4 4 5 5 4 4 4 4 4 4
7 7 7 7 8 8 8 8 8 8 7 8 8 8 8 8 9 9 9 8 8 7 7 6 5 5 5 5 5 5 4 4 4 4 4 4 4 4 4 4 4 4 4
10 10 9 9 10 10 11 11 11 10 10 10 10 10 10 10 10 10 10 10 9 9 8 7 6 6 6 6 6 5 4 4 3 4 4 4 4 4 4 4 4 4 4
13 13 13 12 13 13 13 13 13 13 13 12 12 12 12 12 12 12 12 12 11 10 10 9 8 7 7 6 6 5 4 4 4 4 4 4 4 5 5 5 4 4 4
17 17 16 16 16 17 17 17 16 16 15 15 15 15 14 14 14 14 14 13 13 12 12 11 10 9 8 7 7 6 5 4 4 4 4 4 5 5 5 5 5 5 5
21 21 21 21 21 21 21 21 20 19 19 18 18 17 16 16 16 16 16 15 15 15 14 13 12 11 10 9 8 7 6 5 5 5 6 6 6 6 6 6 6 6 6
24 25 24 24 25 25 25 25 24 23 22 21 21 20 19 18 17 17 17 17 16 16 16 15 14 13 12 11 11 10 9 7 6 6 6 6 6 6 6 6 6 7 6
28 28 28 28 27 27 27 27 27 27 26 24 24 23 22 20 19 18 18 17 17 17 17 16 15 15 14 13 13 12 10 9 8 8 8 8 7 7 7 7 7 7 7
31 32 32 31 31 31 31 31 30 30 29 28 26 25 24 23 22 21 20 19 18 18 19 18 18 17 17 16 15 14 12 11 11 11 10 10 9 9 9 9 8 8 8
35 35 35 34 34 34 33 33 33 32 32 30 28 28 27 27 26 24 22 21 21 21 21 20 19 19 19 18 17 16 15 14 13 13 12 12 11 11 11 11 10 10 10
39 39 39 39 38 38 37 35 35 34 33 32 30 29 28 27 26 25 23 23 23 22 21 21 21 21 21 20 19 19 18 17 16 16 15 14 14 13 13 13 12 12 11
42 43 43 42 42 42 41 40 37 36 35 34 33 32 30 27 26 26 25 24 23 23 23 23 23 23 23 22 21 21 21 20 19 18 18 18 17 16 15 15 14 13 13
45 45 45 45 44 44 44 43 41 40 38 35 33 33 31 30 28 26 27 26 25 25 25 25 25 24 24 23 23 23 23 22 22 21 20 20 20 19 18 17 17 16 15
46 46 46 46 45 45 44 44 43 41 41 38 35 34 34 33 31 31 29 27 26 26 26 26 27 27 26 25 24 24 24 24 24 23 23 23 22 22 21 20 19 19 18
43 44 44 44 44 44 44 43 43 42 41 39 38 36 36 35 33 32 31 29 28 27 27 28 27 27 27 26 26 26 25 25 25 25 25 24 24 24 23 22 22 21 21
39 39 39 40 41 42 41 41 41 41 41 39 38 38 37 36 35 33 31 30 30 29 30 30 29 28 28 27 27 27 27 27 27 27 27 27 27 26 26 25 25 24 23
33 34 34 35 36 37 37 37 37 37 38 37 37 37 36 37 36 34 32 30 30 31 30 30 30 29 29 29 29 28 29 29 29 28 28 29 29 29 29 28 28 27 26
Wind_Direction
91 88 82 78 76 74 73 72 71 70 70 71 73 74 74 74 73 73 72 73 76 82 91 146 205 221 228 234 236 237 239 239 241 240 245 249 253 257 264 271 275 279 288
95 92 87 81 77 74 72 70 69 67 66 66 67 69 69 69 68 67 64 63 64 64 67 98 184 224 229 237 242 242 241 243 245 248 251 255 257 260 267 273 275 279 281
99 94 91 85 79 75 71 68 66 65 63 62 62 63 64 64 64 63 59 57 55 52 49 49 19 247 235 243 249 248 249 249 252 256 256 257 259 262 267 272 274 276 278
110 100 95 90 82 76 70 65 62 60 58 57 56 56 56 57 58 57 54 51 49 47 44 40 32 11 263 255 256 256 259 258 259 261 262 262 262 263 266 270 273 272 272
124 115 105 96 87 78 71 64 59 55 52 51 50 50 49 49 49 49 47 44 41 39 38 35 31 18 328 277 268 266 266 265 264 268 268 265 264 267 267 269 271 269 267
141 142 130 115 97 82 70 61 55 50 45 43 42 41 40 40 40 39 39 38 34 32 31 28 25 15 352 311 290 279 277 277 276 278 277 273 270 272 274 273 270 266 262
170 180 182 172 145 95 65 51 45 39 33 29 28 27 25 24 26 26 26 27 27 25 22 20 18 13 1 336 307 294 289 284 282 283 281 278 274 278 278 275 270 266 256
205 209 213 212 213 220 278 3 9 10 7 6 4 4 4 3 4 7 9 10 14 15 15 14 13 10 3 349 330 316 308 298 294 292 289 283 277 285 284 273 269 261 254
240 239 238 236 236 241 252 268 293 310 320 328 333 336 339 341 341 343 345 347 352 358 1 4 6 5 2 353 340 331 322 312 301 299 297 291 282 286 286 279 276 264 260
256 253 251 250 251 254 257 263 272 280 289 297 303 309 314 318 321 323 323 324 326 332 337 343 350 353 352 347 341 337 328 320 310 304 300 296 294 293 293 290 284 270 257
266 260 258 257 257 259 261 263 267 271 276 282 288 292 295 299 302 306 309 310 311 313 316 321 329 336 336 338 335 335 333 327 319 315 308 303 294 292 290 289 287 279 278
268 265 264 264 263 263 264 265 267 269 271 274 280 284 287 289 292 295 297 299 301 302 304 306 310 316 318 321 325 329 331 327 313 309 306 304 297 292 287 279 274 274 279
272 269 267 267 266 266 266 266 265 266 268 271 274 278 281 284 286 287 289 291 293 293 292 293 295 299 302 308 315 320 322 315 307 302 301 299 296 288 284 279 274 273 277
274 271 269 266 266 265 264 263 262 263 263 266 269 272 275 278 281 283 283 283 285 286 285 283 284 287 291 292 298 304 306 304 301 299 297 296 296 292 285 278 275 277 279
271 270 270 268 266 265 264 263 261 259 260 262 263 266 269 273 277 279 280 278 279 279 279 279 277 278 281 281 282 287 288 287 286 284 283 284 287 290 288 282 278 279 281
268 268 268 267 266 265 263 261 260 258 258 259 260 260 263 267 271 274 276 276 275 275 275 276 274 273 274 274 273 274 276 278 278 277 275 276 278 280 281 281 279 279 279
266 266 266 265 263 263 262 259 259 256 254 255 257 258 259 263 264 267 271 272 272 272 273 273 272 271 269 268 267 269 272 273 270 271 272 272 273 274 274 275 274 276 278
265 264 264 264 263 262 260 259 256 256 255 254 256 258 261 263 261 262 265 267 269 270 272 272 271 269 267 265 265 266 269 270 269 268 269 270 269 269 269 268 268 271 275
264 263 261 262 261 259 258 258 257 256 253 253 255 257 259 260 260 260 261 264 266 268 271 270 267 267 265 264 264 264 265 267 268 266 265 265 263 265 265 266 266 268 272
266 264 261 260 258 258 257 256 255 254 254 255 255 257 258 259 258 259 261 263 264 266 267 267 265 264 263 261 261 262 263 264 265 264 262 261 261 262 263 264 265 267 271
268 267 264 262 259 257 257 257 255 254 254 255 254 255 256 258 258 257 258 258 261 264 264 265 264 263 261 259 258 259 261 263 262 261 261 261 261 261 260 261 265 269 271
270 269 267 264 262 259 257 256 255 253 254 255 255 254 255 257 257 259 259 258 261 263 264 262 260 261 261 260 259 258 259 260 259 258 259 260 260 260 259 261 264 267 270
272 270 268 266 264 262 259 257 255 255 254 255 257 255 255 256 257 261 261 259 261 262 263 263 258 257 258 260 261 259 256 256 258 259 260 259 259 260 260 260 263 266 269
273 271 269 267 266 264 261 258 256 254 253 254 255 255 256 257 259 261 261 260 261 263 263 261 258 256 256 258 258 258 257 256 256 257 258 259 258 258 258 260 264 266 267
275 273 270 266 264 263 260 258 256 253 252 253 254 256 258 259 260 261 262 264 262 261 262 262 259 256 256 256 257 257 257 256 255 257 257 257 257 257 258 260 263 265 267
280 276 273 268 265 263 260 257 255 253 252 252 253 253 254 255 257 259 263 264 264 261 259 260 259 259 257 256 255 256 258 255 255 256 258 258 255 256 257 258 260 261 264
Height
5909 5909 5909 5909 5909 5908 5907 5906 5905 5905 5904 5904 5904 5904 5905 5905 5905 5905 5905 5905 5905 5905 5906 5906 5907 5908 5909 5910 5911 5912 5914 5915 5916 5917 5918 5919 5920 5921 5921 5921 5921 5922 5922
5910 5910 5911 5911 5911 5910 5909 5908 5908 5907 5906 5906 5906 5906 5906 5906 5906 5906 5906 5906 5906 5906 5906 5907 5907 5908 5909 5909 5910 5911 5912 5914 5915 5916 5917 5918 5918 5919 5920 5920 5920 5920 5920
5911 5912 5912 5912 5912 5911 5911 5910 5910 5909 5908 5908 5908 5907 5907 5907 5907 5907 5907 5907 5907 5907 5907 5907 5907 5908 5908 5909 5910 5910 5911 5912 5913 5914 5915 5916 5917 5917 5918 5918 5918 5918 5919
5912 5912 5913 5913 5913 5913 5912 5912 5911 5911 5910 5910 5909 5909 5909 5909 5909 5908 5908 5908 5908 5908 5908 5908 5908 5908 5908 5909 5909 5910 5910 5911 5911 5912 5913 5914 5915 5915 5915 5916 5916 5916 5916
5912 5913 5913 5913 5913 5913 5913 5913 5912 5912 5912 5911 5911 5911 5910 5910 5910 5910 5909 5909 5909 5908 5908 5908 5908 5908 5908 5908 5908 5909 5909 5910 5910 5911 5912 5912 5912 5913 5913 5913 5913 5913 5914
5913 5913 5914 5914 5914 5914 5914 5913 5913 5913 5913 5912 5912 5912 5912 5911 5911 5911 5910 5910 5909 5909 5909 5908 5908 5908 5908 5908 5908 5908 5908 5909 5909 5910 5910 5910 5910 5911 5911 5911 5911 5911 5912
5913 5913 5914 5914 5914 5914 5914 5914 5914 5913 5913 5913 5913 5913 5912 5912 5912 5911 5911 5911 5910 5910 5909 5909 5908 5908 5908 5907 5907 5908 5908 5908 5908 5908 5908 5909 5909 5909 5909 5909 5909 5910 5910
5913 5913 5913 5913 5913 5913 5913 5914 5914 5913 5913 5913 5913 5913 5913 5912 5912 5912 5911 5911 5911 5910 5909 5909 5908 5908 5907 5907 5907 5907 5907 5907 5907 5907 5907 5907 5908 5908 5908 5908 5908 5908 5909
5913 5913 5913 5913 5913 5913 5913 5913 5913 5913 5913 5913 5913 5913 5912 5912 5912 5912 5911 5911 5910 5910 5910 5909 5908 5908 5907 5907 5906 5906 5906 5906 5906 5906 5906 5906 5907 5907 5906 5907 5907 5907 5908
5912 5912 5912 5912 5912 5912 5912 5912 5912 5912 5912 5912 5912 5912 5912 5911 5911 5911 5910 5910 5910 5910 5909 5909 5908 5907 5907 5906 5906 5906 5905 5905 5905 5905 5906 5906 5906 5906 5906 5906 5906 5907 5907
5911 5910 5910 5910 5910 5910 5910 5910 5910 5910 5910 5910 5910 5910 5910 5910 5910 5909 5909 5909 5908 5908 5908 5908 5907 5907 5906 5906 5905 5905 5905 5905 5905 5905 5905 5905 5905 5905 5905 5906 5906 5906 5906
5909 5908 5908 5908 5908 5908 5908 5908 5908 5908 5908 5908 5908 5908 5908 5907 5907 5907 5907 5907 5907 5906 5906 5906 5906 5906 5905 5905 5905 5904 5904 5904 5904 5904 5904 5904 5905 5905 5905 5905 5905 5906 5906
5906 5906 5905 5905 5905 5905 5905 5905 5905 5905 5905 5905 5905 5905 5905 5905 5904 5905 5905 5904 5904 5904 5904 5904 5904 5904 5904 5904 5904 5904 5903 5903 5903 5903 5903 5904 5904 5904 5904 5904 5905 5905 5905
5903 5902 5902 5901 5901 5901 5901 5901 5901 5901 5901 5901 5901 5901 5901 5901 5901 5901 5901 5901 5901 5901 5901 5901 5902 5902 5902 5902 5902 5902 5902 5902 5902 5902 5902 5902 5903 5903 5903 5903 5904 5904 5904
5899 5898 5897 5897 5897 5897 5897 5897 5897 5897 5896 5896 5896 5897 5897 5897 5898 5898 5898 5898 5898 5898 5898 5898 5898 5899 5899 5900 5900 5900 5901 5901 5901 5901 5901 5901 5901 5902 5902 5902 5902 5903 5903
5894 5893 5892 5892 5892 5891 5891 5891 5891 5891 5891 5891 5891 5891 5892 5892 5893 5894 5894 5894 5894 5894 5894 5895 5895 5896 5896 5897 5897 5898 5898 5899 5899 5899 5899 5899 5900 5900 5900 5901 5901 5901 5901
5889 5888 5886 5886 5886 5885 5885 5885 5885 5885 5885 5885 5885 5885 5886 5887 5888 5888 5889 5890 5890 5890 5890 5891 5891 5892 5892 5893 5894 5895 5895 5896 5896 5896 5897 5897 5898 5898 5898 5899 5899 5899 5899
5882 5881 5880 5879 5879 5879 5878 5878 5878 5878 5878 5879 5879 5880 5880 5881 5882 5883 5883 5884 5885 5885 5886 5886 5887 5888 5888 5889 5890 5891 5892 5892 5893 5893 5894 5894 5895 5896 5896 5896 5896 5897 5897
5873 5872 5872 5871 5871 5871 5871 5871 5871 5871 5871 5871 5872 5873 5874 5875 5875 5876 5877 5878 5879 5880 5881 5882 5882 5883 5884 5885 5885 5886 5887 5888 5889 5889 5890 5891 5892 5892 5893 5893 5894 5894 5894
5862 5862 5862 5862 5862 5861 5862 5863 5864 5864 5864 5865 5865 5866 5867 5868 5868 5870 5871 5872 5873 5874 5875 5876 5877 5878 5879 5880 5881 5882 5882 5883 5884 5885 5886 5887 5888 5888 5889 5890 5890 5890 5891
5850 5850 5850 5850 5851 5852 5853 5853 5855 5856 5857 5858 5859 5859 5860 5861 5862 5863 5864 5865 5867 5868 5869 5870 5871 5872 5873 5874 5876 5877 5878 5878 5879 5880 5882 5882 5883 5884 5885 5885 5886 5887 5887
5838 5837 5837 5838 5839 5840 5842 5843 5845 5847 5849 5850 5851 5852 5853 5854 5855 5856 5858 5858 5860 5861 5862 5864 5865 5866 5867 5869 5870 5871 5873 5874 5874 5875 5876 5877 5878 5879 5879 5880 5881 5882 5882
5825 5825 5825 5825 5826 5828 5830 5832 5834 5837 5840 5842 5843 5845 5846 5847 5848 5850 5851 5852 5853 5855 5856 5857 5858 5860 5861 5862 5864 5865 5866 5867 5868 5870 5870 5871 5872 5873 5874 5875 5876 5876 5877
5813 5812 5812 5813 5814 5816 5818 5820 5823 5826 5830 5832 5835 5836 5838 5839 5841 5842 5844 5845 5847 5848 5849 5850 5851 5852 5854 5855 5857 5858 5860 5861 5862 5864 5864 5865 5866 5867 5868 5869 5870 5871 5871
5802 5801 5801 5801 5802 5803 5806 5809 5812 5816 5819 5823 5825 5827 5829 5831 5833 5834 5836 5838 5839 5841 5842 5843 5844 5845 5847 5848 5850 5851 5852 5853 5855 5856 5857 5858 5859 5860 5861 5863 5864 5864 5865
5791 5791 5790 5791 5791 5793 5795 5798 5801 5805 5809 5813 5816 5819 5821 5823 5825 5827 5828 5830 5832 5833 5834 5836 5836 5837 5839 5840 5842 5843 5845 5846 5847 5849 5850 5851 5852 5853 5854 5856 5856 5857 5858